Flag for United Kingdom Weather past 2 weeks in Glasgow, Scotland, United Kingdom

Now
63 °F

Passing clouds.


Feels Like: 63 °F
Forecast: 35 / 56 °F
Wind: 9 mph from East

Location: Glasgow Airport


UV Index: 3 (Moderate)

Visibility: N/A


Pressure: 30.09 "Hg

Humidity: 37%

Dew point: 36 °F

Location of GlasgowLocation

Historic Weather in Glasgow

°F

Glasgow temperature yesterday

Maximum temperature yesterday: 57 °F (at 2:50 PM)
Minimum temperature yesterday: 28 °F (at 5:20 AM)
Average temperature yesterday: 44 °F

Past Weeks' High & Low Weather Summary

 TemperatureHumidityPressure
High61 °F (Apr 19, 1:20 PM)100% (Apr 4, 9:50 PM)30.42 "Hg (Apr 4, 9:50 PM)
Low28 °F (Apr 18, 5:20 AM)29% (Apr 18, 4:20 PM)29.45 "Hg (Apr 6, 10:20 AM)
Average48 °F80%29.97 "Hg
* Reported Apr 4 1:20 PM — Apr 19 1:20 PM, Glasgow, Weather by CustomWeather, © 2014

Note: Actual official high and low records may vary slightly from our data, if they occured in-between our weather recording intervals... More about our weather records

Advertising

Historic Weather Conditions — Data for Previous 24 hours

 ConditionsComfort  
Time TempWeatherWind HumidityBarometerVisibility
1:20 PM
Apr 19
61 °FPassing clouds.6 mph36%30.12 "HgN/A
12:50 PM59 °FPassing clouds.7 mph36%30.12 "HgN/A
12:20 PM59 °FPassing clouds.7 mph36%30.12 "HgN/A
11:50 AM57 °FPassing clouds.6 mph39%30.12 "HgN/A
11:20 AM55 °FPassing clouds.5 mph47%30.15 "HgN/A
10:50 AM52 °FSunny.3 mph62%30.15 "Hg10 mi
10:20 AM52 °FSunny.3 mph62%30.15 "Hg10 mi
9:50 AM48 °FPassing clouds.5 mph66%30.15 "HgN/A
9:20 AM46 °FSunny.3 mph71%30.15 "Hg10 mi
8:50 AM45 °FSunny.No wind81%30.15 "Hg10 mi
8:20 AM41 °FSunny.2 mph93%30.15 "Hg10 mi
7:50 AM36 °FSunny.2 mph100%30.15 "Hg10 mi
7:20 AM34 °FSunny.2 mph93%30.15 "Hg10 mi
6:50 AM32 °FClear.No wind100%30.15 "Hg10 mi
6:20 AM30 °FClear.3 mph100%30.15 "Hg10 mi
5:50 AM32 °FFog.2 mph100%30.15 "HgN/A
5:20 AM32 °FFog.2 mph100%30.15 "HgN/A
4:50 AM32 °FFog.2 mph100%30.15 "Hg1 mi
4:20 AM34 °FClear.2 mph93%30.15 "HgN/A
3:50 AM34 °FClear.2 mph100%30.15 "Hg4 mi
3:20 AM36 °FClear.No wind93%30.15 "Hg10 mi
2:50 AM36 °FClear.No wind93%30.15 "Hg10 mi
2:20 AM36 °FClear.3 mph93%30.15 "Hg10 mi
1:50 AM37 °FClear.No wind93%30.15 "Hg10 mi
1:20 AM37 °FClear.No wind87%30.15 "Hg10 mi
12:50 AM39 °FClear.3 mph87%30.15 "Hg10 mi
12:20 AM37 °FClear.2 mph93%30.15 "Hg10 mi
11:50 PM
Apr 18
39 °FClear.No wind87%30.18 "Hg10 mi
11:20 PM43 °FClear.No wind76%30.18 "Hg10 mi
10:50 PM43 °FClear.3 mph76%30.15 "Hg10 mi
10:20 PM45 °FClear.5 mph71%30.18 "Hg10 mi
9:50 PM45 °FClear.3 mph66%30.18 "Hg10 mi
9:20 PM45 °FSunny.6 mph66%30.15 "Hg10 mi
8:50 PM45 °FSunny.8 mph71%30.15 "Hg10 mi
8:20 PM46 °FSunny.7 mph66%30.15 "Hg10 mi
7:50 PM48 °FSunny.7 mph58%30.15 "Hg10 mi
7:20 PM54 °FSunny.8 mph47%30.15 "Hg10 mi
6:50 PM55 °FSunny.9 mph41%30.15 "Hg10 mi
6:20 PM55 °FSunny.9 mph36%30.15 "Hg10 mi
5:50 PM57 °FSunny.8 mph36%30.15 "Hg10 mi
5:20 PM57 °FPassing clouds.7 mph36%30.15 "HgN/A
4:50 PM57 °FPassing clouds.9 mph29%30.15 "HgN/A
4:20 PM57 °FSunny.10 mph29%30.15 "Hg10 mi
3:50 PM57 °FSunny.10 mph48%30.18 "Hg10 mi
3:20 PM57 °FPassing clouds.8 mph44%30.18 "HgN/A
2:50 PM57 °FPassing clouds.6 mph39%30.18 "HgN/A
2:20 PM55 °FPassing clouds.7 mph44%30.18 "HgN/A
Weather by CustomWeather, © 2014

See weather overview